Tracking 19908 objects as of 18-Oct-2019
HD Live streaming from Space Station
objects crossing your sky now

LATINSAT A

Track LATINSAT A now!
10-day predictions
LATINSAT A is classified as:


NORAD ID: 27612
Int'l Code: 2002-058H
Perigee: 605.4 km
Apogee: 671.0 km
Inclination: 64.6 °
Period: 97.3 minutes
Semi major axis: 7009 km
RCS: 0.0297 m2 (small)
Launch date: December 20, 2002
Source: Argentina (ARGN)
Launch site: TYURATAM MISSILE AND SPACE COMPLEX (TTMTR)

Nanosatellite; planned constellation of 48 satellites, little LEO; asset tracking and monitoring services.
aabbcc
Your satellite tracking list
Your tracking list is empty




NASA's NSSDC Master Catalog

Two Line Element Set (TLE):
1 27612U 02058H   19290.81901257 -.00000067 +00000-0 +10623-4 0  9997
2 27612 064.5545 271.8479 0046770 224.8113 134.9211 14.79444646907154
Source of the keplerian elements: AFSPC